Other Public Products
Issued by NWS Grand Forks, ND

Home | Current Version | Previous Version | Graphics & Text | Print | Product List | Glossary On
Versions: 1 2 3 4 5 6 7 8 9 10 11 12 13 14 15 16 17 18 19 20 21 22 23 24 25 26 27 28 29 30 31 32 33 34 35 36 37 38 39 40 41 42 43 44 45 46 47 48 49 50
000
FPUS83 KFGF 232210
OPUFGF
PRAIRIE TO PINES WEATHER ROUNDUP
NATIONAL WEATHER SERVICE EASTERN NORTH DAKOTA/GRAND FORKS ND
500 PM CDT WED APR 23 2014

 **SATELLITE DATA USED TO AUGMENT SKY COVER AT AUTOMATED STATIONS**
 *****  WEATHER ACROSS EASTERN NORTH DAKOTA  *****

CITY           SKY/WX    TMP DP  RH WIND       PRES   REMARKS
GRAND FORKS    LGT RAIN  43  40  89 SE20      29.85F
GRAND FORKS AF LGT RAIN  42  42  99 SE23G30   29.85S
GRAND CITY NWS   N/A     41 N/A N/A SE23        N/A
BUXTON         NOT AVBL
DEVILS LAKE    CLOUDY    41  34  75 SE25G35   29.71F
FARGO          LGT RAIN  43  39  86 E17G26    29.82F
WAHPETON ARPT  CLOUDY    43  36  75 SE25G31   29.80F
$$

 *****  WEATHER ACROSS CENTRAL AND WESTERN NORTH DAKOTA  *****

CITY           SKY/WX    TMP DP  RH WIND       PRES   REMARKS
JAMESTOWN      LGT RAIN  42  40  92 SE20G30   29.69S FOG
BISMARCK       CLOUDY    56  45  66 SE14      29.58R
MINOT          LGT RAIN  46  42  86 E25G35    29.56R
MINOT AFB      CLOUDY    45  45  99 SE25G35   29.56R
GARRISON         N/A     51  44  77 SE9G21    29.54R
WILLISTON      LGT RAIN  47  42  83 W15       29.56R
DICKINSON      PTSUNNY   55  35  47 W30G37    29.57R
HETTINGER      PTSUNNY   55  35  47 NW24G30   29.63R
$$

 *****  OTHER OBSERVATIONS NORTHEAST NORTH DAKOTA  *****

CITY           SKY/WX    TMP DP  RH WIND       PRES   REMARKS
WALHALLA         N/A     41  41 100 SE18      29.85R
LANGDON        MIX PCPN  41  39  93 SE23G31   29.79S
CAVALIER       MIX PCPN  43  41  93 SE13G18   29.86S
GRAFTON        CLOUDY    43  43 100 SE17G23   29.86S FOG
CANDO          MIX PCPN  41  39  93 SE28G37   29.72F
FORT TOTTEN    NOT AVBL
ROLLA          LGT RAIN  41  41 100 SE28G40   29.71F
RUGBY          MIX PCPN  41  41 100 SE31G37   29.63F
 ***** THE ABOVE OBSERVATIONS ARE NON NWS ARE NOT QUALITY
        CONTROLLED AND MAY MIS-REPORT RAIN FOR SNOW...
$$

 *****  OTHER OBSERVATIONS SOUTHEAST NORTH DAKOTA *****

CITY           SKY/WX    TMP DP  RH WIND       PRES   REMARKS
COOPERSTOWN    CLOUDY    39  39 100 SE31G43   29.73F
VALLEY CITY    CLOUDY    41  41 100 SE21G26   29.75F
OAKES          CLOUDY    45  39  81 SE25G32   29.70S
GWINNER        CLOUDY    43  41  93 SE28G38   29.74S
SHEYENNE NWR     N/A     44  42  92 SE17      29.95
BUFFALO        NOT AVBL
WYNDMERE       NOT AVBL
 ***** THE ABOVE OBSERVATIONS ARE NON NWS ARE NOT QUALITY
       CONTROLLED AND MAY MIS-REPORT RAIN FOR SNOW...
$$

  *****  WEATHER ACROSS NORTHERN MINNESOTA  *****

CITY           SKY/WX    TMP DP  RH WIND       PRES   REMARKS
FLAG ISLAND    CLOUDY    54  21  28 E10G16    29.91F
WARROAD        CLOUDY    55  28  35 E9        29.90F
ROSEAU         CLOUDY    55  23  28 SE17      29.89S
HALLOCK        LGT RAIN  45  41  87 SE14      29.87F
THF RVR FALLS  CLOUDY    45  37  76 SE16      29.89S
HALSTAD          N/A     41  39  93 SE24        N/A
FOSSTON        RAIN      39  37  93 SE14G25   29.90S
BAUDETTE       CLOUDY    56  23  27 SE13G21   29.91F
WASKISH        CLOUDY    55  27  33 SE12G20   29.92F
CROOKSTON      RAIN      41  41 100 S25       29.89S
$$
  *****  WEATHER ACROSS CENTRAL AND WEST MINNESOTA  *****

CITY           SKY/WX    TMP DP  RH WIND       PRES   REMARKS
BEMIDJI        CLOUDY    48  25  39 SE18G28   29.91S
PARK RAPIDS    LGT RAIN  38  36  92 SE12      29.92S FOG
WADENA         RAIN      36  34  93 E16G25    29.90F
DETROIT LAKES  DRIZZLE   37  37 100 SE22G32   29.87R
MOORHEAD       CLOUDY    43  43 100 SE20      29.83F
FERGUS FALLS   CLOUDY    43  36  75 SE22G33   29.81S
ELBOW LAKE     CLOUDY    41  37  84 SE21G31   29.84R
MORRIS MN      CLOUDY    43  37  81 SE25G32   29.82F
STAPLES        RAIN      36  34  93 E9G17     29.93F
WHEATON        CLOUDY    45  39  81 SE26G35   29.81S
$$
  *****  WEATHER ELSEWHERE ACROSS MINNESOTA  *****

CITY           SKY/WX    TMP DP  RH WIND       PRES   REMARKS
DULUTH         CLOUDY    46  24  42 E12       30.00F
INTRNTL FALLS  CLOUDY    55  23  28 SE14      29.95F
ELY            CLOUDY    50  18  27 SE14      30.01F
CLOQUET        CLOUDY    45  21  39 E14       30.00F
BRAINERD       LGT RAIN  44  35  70 SE7       29.99R
HIBBING        CLOUDY    51  23  33 SE15      29.99F
ALEXANDRIA     CLOUDY    40  37  89 E21G32    29.87F
SAINT CLOUD    CLOUDY    41  37  86 E9G20     29.95F
MINNEAPOLIS    LGT RAIN  41  37  86 E18       29.97F
$$

  *****  WEATHER ACROSS SOUTH DAKOTA  *****

CITY           SKY/WX    TMP DP  RH WIND       PRES   REMARKS
SIOUX FALLS    PTSUNNY   63  40  42 SE26G36   29.64F
BROOKINGS      NOT AVBL
WATERTOWN      CLOUDY    50  38  63 SE16G26   29.68F
HURON          PTSUNNY   69  41  36 SE21G33   29.55S
SISSETON         N/A     42  38  85 SE24G36   29.75F
ABERDEEN       CLOUDY    57  39  51 SE25G31   29.62R
MITCHELL       MOSUNNY   70  44  39 SE22G33   29.54F
PIERRE         CLOUDY    72  44  36 CALM      29.49R
MOBRIDGE       PTSUNNY   63  44  50 S3        29.53S
RAPID CITY     PTSUNNY   57  38  48 N33G41    29.63R
$$

  *****  SOME WEATHER IN NEARBY STATES *****

CITY           SKY/WX    TMP DP  RH WIND       PRES   REMARKS
GLASGOW MT     PTSUNNY   59  23  25 W28G36    29.55S
GREAT FALLS MT CLOUDY    51  24  34 SW30G43   29.66S
CHEYENNE WY    CLOUDY    54  22  28 NW21G38   29.68F
SCOTTSBLUFF NE CLOUDY    63  18  17 W23G36    29.66S
OMAHA NE       LGT RAIN  54  46  74 SE23      29.68F
DES MOINES IA  LGT RAIN  48  40  73 SE20G25   29.87F
DAVENPORT IA   LGT RAIN  53  31  42 E12       30.06F
CHICAGO IL     CLOUDY    47  21  35 NE8       30.12S
EAU CLAIRE WI  CLOUDY    53  23  31 SE14      30.03F
LA CROSSE WI   CLOUDY    46  36  68 E15       30.03F
$$

  *****  SOME NATIONAL WEATHER *****

CITY           SKY/WX    TMP DP  RH WIND       PRES   REMARKS
LA GUARDIA NY  MOSUNNY   54  32  43 NW33G39   29.65R
RALEIGH NC     MOSUNNY   71  25  17 N10       29.84R
ATLANTA GA     SUNNY     75  31  19 NW9       29.90S
NEW ORLEANS LA MOSUNNY   82  55  39 MISG      29.89F
OKLAHOMA CITY  PTSUNNY   84  54  35 S23G29    29.72F
ALBUQUERQUE NM CLOUDY    71  16  12 SW15G32   29.76F
SALT LAKE CITY MOSUNNY   51  20  29 NW7       30.06R
LOS ANGELES CA PTSUNNY   67  46  47 W16       29.94F
BOISE ID       PTSUNNY   54  30  40 VRB7      30.00F
SEATTLE WA     CLOUDY    51  42  71 S9        29.88F
$$

*** WEATHER ACROSS MANITOBA...SASKATCHEWAN AND ONTARIO ***
                ***ONTARIO***

CITY           SKY/WX    TMP DP  RH WIND       PRES   REMARKS
GERALDTON      MOSUNNY   48  25  40 N3        30.08S
THUNDER BAY    PTSUNNY   54  21  28 S13       30.09F
SIOUX LOOKOUT  PTSUNNY   54  21  28 S5        30.01F
TORONTO        MOSUNNY   48  12  23 N23G30    29.99R
BIG TROUT LK   PTSUNNY   46  19  34 CALM      30.09S
PICKLE LAKE    PTSUNNY   52  21  30 NW5       30.04F
DRYDEN         PTSUNNY   52  19  28 S10       29.99F
KENORA         CLOUDY    52  19  28 SE13G18   29.96F
$$
                *** MANITOBA***

CITY           SKY/WX    TMP DP  RH WIND       PRES   REMARKS
BRANDON        LGT RAIN  45  43  93 SE17G25   29.76F
DAUPHIN        CLOUDY    45  37  76 SE18G26   29.80F
ISLAND LAKE    MOSUNNY   54  43  66 N6        30.02F
PILOT MOUND      N/A     41  39  93 SE24G30     N/A
THE PAS        CLOUDY    52  23  32 E14G29    29.90F
THOMPSON       MOSUNNY   39  25  56 NE14G22   30.15S
WINNIPEG       CLOUDY    57  25  28 SE18      29.87R
LYNN LAKE      SUNNY     36  23  60 E16G24    30.14S
CHURCHILL      CLOUDY    25  19  80 NE14      30.35R WCI  13
GILLAM         MOSUNNY   30  23  74 NE16      30.25F WCI  19
$$
                ***SASKATCHEWAN***

CITY           SKY/WX    TMP DP  RH WIND       PRES   REMARKS
ESTEVAN        NOT AVBL
KINDERSLEY     CLOUDY    46  41  81 W17G23    29.42R
LLOYDMINSTER   LGT RAIN  39  37  93 E23G35    29.48S FOG
PRINCE ALBERT  CLOUDY    50  32  50 E17G26    29.63F
REGINA         LGT RAIN  45  43  93 SE24G31   29.50S FOG



USA.gov is the U.S. government's official web portal to all federal, state and local government web resources and services.